P/2021 N2 ( Fuls )

Japanese version
Home page
Updated on July 24, 2022

---------------------------------------------------------------------

* Profile

Discovery Date July 9, 2021
Magnitude 18.3 mag
Discoverer David Carson Fuls (Catalina Sky Survey)

* Pictures

* Orbital Elements

Epoch 2022 Jan. 21.0 TT = JDT 2459600.5
T 2021 Nov. 13.29891 TT                                 Rudenko
q   3.7965891            (2000.0)            P               Q
n   0.05399191     Peri.  177.34491     +0.77538749     -0.61329446
a   6.9329315      Node   221.74244     +0.57513248     +0.78424924
e   0.4523833      Incl.   13.06281     +0.26076209     +0.09393102
P  18.3
From 713 observations 2021 June 27-2022 Feb. 22, mean residual 0".3.

* Finding Charts

* Magnitudes Graph

        m1 = -44.5 + 5 log d + 100   log r(t - 30)  [  ,30]  (             - 2021 Dec. 12)
        m1 =   1.8 + 5 log d +  20.0 log r          [30,  ]  (2021 Dec. 12 -             )

---------------------------------------------------------------------

The orbital elements are published on M.P.E.C. 2022-D36.
The charts are made with StellaNavigator Ver.10 (AstroArts).
The magnitudes graphs are made with Comet for Windows.

---------------------------------------------------------------------

Copyright(C) Seiichi Yoshida (comet@aerith.net). All rights reserved.